Date String (YYYY-MM-DD hh:mm:ss) UTC,Instrument flags,absolute air pressure of the measurement (hPa),sample flow rate (lpm),inlet stack bypass flow (lpm),air temperature of the measurement (°C),ambient temperature measured by the external sensor (°C),aerosol sample conditioner tube jacket temperature (°C),OPC LED temperature (°C),internal box temperature (°C),relative humidity of the measurement (%),span deviation,mass concentration of particles derived from Lorenz-Mie calculation of OPC scattering (μg/m³),mass concentration of particles derived from Lorenz-Mie calculation of OPC scattering (μg/m³),mass concentration of particles derived from Lorenz-Mie calculation of OPC scattering (μg/m³)
DateTimeUTC,F1_M11,P_M11,Q1_M11,Q2_M11,T1_M11,T2_M11,T3_M11,T4_M11,T5_M11,U1_M11,ZSPAN_M11,X0_M11,X2_M11,X1_M11
2023-08-03 16:00:00,SystemResetWarning,0833.7,4.99,000.00,031.0,027.7,000.0,039.2,031.5,34.4,0000.0,0009.01,0004.57,0004.04
2023-08-03 16:01:00,SystemResetWarning,0833.6,4.99,000.00,031.0,026.5,000.0,039.0,031.3,34.7,0000.0,0009.09,0004.56,0004.03
2023-08-03 16:02:00,SystemResetWarning,0833.7,5.01,000.00,030.9,025.6,000.0,038.9,031.2,35.2,0000.0,0009.10,0004.57,0004.03
2023-08-03 16:03:00,SystemResetWarning,0833.7,5.01,000.00,031.0,025.6,000.0,038.8,031.1,35.4,0000.0,0008.77,0004.54,0004.01
2023-08-03 16:04:00,SystemResetWarning,0833.7,5.00,000.00,031.1,025.9,000.0,038.9,031.1,35.1,0000.0,0008.35,0004.51,0004.01
2023-08-03 16:05:00,SystemResetWarning,0833.7,4.99,000.00,031.3,026.3,000.0,038.9,031.3,34.7,0000.0,0008.53,0004.50,0004.00
2023-08-03 16:06:00,SystemResetWarning,0833.7,4.98,000.00,031.4,026.7,000.0,039.0,031.3,35.0,0000.0,0008.46,0004.48,0004.00
2023-08-03 16:07:00,SystemResetWarning,0833.7,5.03,000.00,031.6,027.0,000.0,039.0,031.4,35.7,0000.0,0008.47,0004.49,0004.00
2023-08-03 16:08:00,SystemResetWarning,0833.7,5.01,000.00,031.9,027.3,000.0,039.1,031.6,35.1,0000.0,0008.45,0004.47,0003.99
2023-08-03 16:09:00,SystemResetWarning,0833.8,4.97,000.00,032.1,027.6,000.0,039.2,031.7,33.6,0000.0,0008.08,0004.46,0004.00
2023-08-03 16:10:00,SystemResetWarning,0833.7,5.01,000.00,032.3,027.7,000.0,039.2,031.8,33.3,0000.0,0007.97,0004.47,0004.01
2023-08-03 16:11:00,SystemResetWarning,0833.7,4.99,000.00,032.4,026.6,000.0,039.2,031.7,32.8,0000.0,0007.80,0004.45,0004.00
2023-08-03 16:12:00,SystemResetWarning,0833.7,5.00,000.00,032.4,025.6,000.0,039.2,031.5,32.8,0000.0,0007.67,0004.43,0004.00
2023-08-03 16:13:00,SystemResetWarning,0833.7,5.01,000.00,032.3,025.5,000.0,039.2,031.3,33.8,0000.0,0007.64,0004.42,0004.00
2023-08-03 16:14:00,SystemResetWarning,0833.7,5.01,000.00,032.2,025.8,000.0,039.4,031.2,33.8,0000.0,0007.70,0004.44,0004.01
2023-08-03 16:15:00,SystemResetWarning,0833.8,4.99,000.00,032.1,026.2,000.0,039.5,031.2,33.7,0000.0,0007.64,0004.45,0004.00
2023-08-03 16:16:00,SystemResetWarning,0833.8,5.01,000.00,032.0,026.6,000.0,039.5,031.3,33.9,0000.0,0007.71,0004.44,0004.00
2023-08-03 16:17:00,SystemResetWarning,0833.8,4.98,000.00,032.0,027.0,000.0,039.6,031.4,35.1,0000.0,0008.14,0004.40,0003.99
2023-08-03 16:18:00,SystemResetWarning,0833.8,5.05,000.00,032.0,027.3,000.0,039.6,031.5,34.3,0000.0,0008.54,0004.41,0003.99
2023-08-03 16:19:00,SystemResetWarning,0833.8,4.96,000.00,032.1,027.6,000.0,039.7,031.6,33.8,0000.0,0009.44,0004.43,0004.01
2023-08-03 16:20:00,SystemResetWarning,0833.8,5.03,000.00,032.2,027.3,000.0,039.6,031.7,34.0,0000.0,0009.90,0004.43,0004.02
2023-08-03 16:21:00,SystemResetWarning,0833.7,4.99,000.00,032.2,026.0,000.0,039.5,031.5,34.0,0000.0,0009.95,0004.45,0004.04
2023-08-03 16:22:00,SystemResetWarning,0833.8,4.99,000.00,032.2,025.4,000.0,039.4,031.3,34.2,0000.0,0010.00,0004.46,0004.05
2023-08-03 16:23:00,SystemResetWarning,0833.7,5.02,000.00,032.0,025.5,000.0,039.4,031.1,34.5,0000.0,0009.97,0004.48,0004.07
2023-08-03 16:24:00,SystemResetWarning,0833.7,5.00,000.00,031.9,025.9,000.0,039.5,031.1,35.0,0000.0,0010.03,0004.51,0004.08
2023-08-03 16:25:00,SystemResetWarning,0833.7,4.98,000.00,031.8,026.3,000.0,039.6,031.2,35.1,0000.0,0010.08,0004.49,0004.08
2023-08-03 16:26:00,SystemResetWarning,0833.7,5.04,000.00,032.0,026.7,000.0,039.6,031.4,35.1,0000.0,0010.51,0004.50,0004.09
2023-08-03 16:27:00,SystemResetWarning,0833.8,4.96,000.00,032.1,027.1,000.0,039.6,031.6,34.2,0000.0,0011.02,0004.51,0004.10
2023-08-03 16:28:00,SystemResetWarning,0833.7,5.01,000.00,032.2,027.4,000.0,039.6,031.6,34.0,0000.0,0010.27,0004.54,0004.12
2023-08-03 16:29:00,SystemResetWarning,0833.8,5.01,000.00,032.3,027.6,000.0,039.7,031.7,34.1,0000.0,0010.58,0004.58,0004.13
2023-08-03 16:30:00,SystemResetWarning,0833.7,4.99,000.00,032.3,027.5,000.0,039.7,031.7,34.1,0000.0,0009.99,0004.56,0004.13
2023-08-03 16:31:00,SystemResetWarning,0833.7,4.98,000.00,032.3,026.2,000.0,039.6,031.5,34.6,0000.0,0009.35,0004.62,0004.13
2023-08-03 16:32:00,SystemResetWarning,0833.7,5.03,000.00,032.3,025.5,000.0,039.5,031.4,34.9,0000.0,0009.28,0004.61,0004.14
2023-08-03 16:33:00,SystemResetWarning,0833.7,4.99,000.00,032.3,025.6,000.0,039.5,031.3,34.6,0000.0,0009.32,0004.61,0004.14
2023-08-03 16:34:00,SystemResetWarning,0833.7,4.99,000.00,032.2,025.9,000.0,039.6,031.3,35.3,0000.0,0009.42,0004.63,0004.14
2023-08-03 16:35:00,SystemResetWarning,0833.7,5.01,000.00,032.2,026.3,000.0,039.7,031.4,34.1,0000.0,0009.96,0004.65,0004.14
2023-08-03 16:36:00,SystemResetWarning,0833.7,4.99,000.00,032.3,026.7,000.0,039.7,031.5,34.3,0000.0,0010.04,0004.67,0004.16
2023-08-03 16:37:00,SystemResetWarning,0833.7,5.03,000.00,032.3,027.1,000.0,039.8,031.6,34.6,0000.0,0009.78,0004.71,0004.17
2023-08-03 16:38:00,SystemResetWarning,0833.7,4.96,000.00,032.4,027.4,000.0,039.8,031.7,35.0,0000.0,0009.03,0004.70,0004.19
2023-08-03 16:39:00,SystemResetWarning,0833.7,5.05,000.00,032.4,027.6,000.0,039.8,031.7,35.1,0000.0,0009.11,0004.73,0004.21
2023-08-03 16:40:00,SystemResetWarning,0833.8,4.96,000.00,032.6,026.9,000.0,039.8,031.8,33.8,0000.0,0008.84,0004.73,0004.22
2023-08-03 16:41:00,SystemResetWarning,0833.7,5.02,000.00,032.7,025.7,000.0,039.7,031.5,33.4,0000.0,0008.49,0004.77,0004.25
2023-08-03 16:42:00,SystemResetWarning,0833.7,5.01,000.00,032.6,025.3,000.0,039.7,031.4,34.3,0000.0,0008.50,0004.77,0004.27
2023-08-03 16:43:00,SystemResetWarning,0833.7,4.99,000.00,032.5,025.5,000.0,039.7,031.2,34.5,0000.0,0008.93,0004.77,0004.28
2023-08-03 16:44:00,SystemResetWarning,0833.8,5.00,000.00,032.3,025.9,000.0,039.8,031.2,34.5,0000.0,0009.13,0004.79,0004.30
2023-08-03 16:45:00,SystemResetWarning,0833.8,4.99,000.00,032.2,026.3,000.0,039.8,031.3,34.4,0000.0,0009.80,0004.80,0004.32
2023-08-03 16:46:00,SystemResetWarning,0833.8,5.00,000.00,032.2,026.8,000.0,039.9,031.4,33.6,0000.0,0009.55,0004.82,0004.33
2023-08-03 16:47:00,SystemResetWarning,0833.8,5.00,000.00,032.1,027.1,000.0,039.9,031.4,34.1,0000.0,0009.41,0004.83,0004.34
2023-08-03 16:48:00,SystemResetWarning,0833.8,4.99,000.00,032.1,027.4,000.0,039.9,031.5,33.9,0000.0,0009.36,0004.80,0004.33
2023-08-03 16:49:00,SystemResetWarning,0833.9,5.00,000.00,032.0,027.7,000.0,039.9,031.6,33.1,0000.0,0009.48,0004.85,0004.34
2023-08-03 16:50:00,SystemResetWarning,0833.8,4.99,000.00,032.0,027.2,000.0,039.8,031.6,33.8,0000.0,0009.48,0004.84,0004.34
2023-08-03 16:51:00,SystemResetWarning,0833.8,4.99,000.00,032.0,025.9,000.0,039.7,031.4,34.8,0000.0,0009.58,0004.83,0004.34
2023-08-03 16:52:00,SystemResetWarning,0833.8,5.02,000.00,032.0,025.5,000.0,039.6,031.3,35.3,0000.0,0009.70,0004.83,0004.33
2023-08-03 16:53:00,SystemResetWarning,0833.8,5.00,000.00,032.0,025.6,000.0,039.6,031.3,35.4,0000.0,0009.75,0004.83,0004.33
2023-08-03 16:54:00,SystemResetWarning,0833.8,4.99,000.00,032.1,026.0,000.0,039.6,031.4,34.7,0000.0,0009.29,0004.84,0004.34
2023-08-03 16:55:00,SystemResetWarning,0833.8,4.99,000.00,032.3,026.4,000.0,039.6,031.5,34.4,0000.0,0009.20,0004.85,0004.33
2023-08-03 16:56:00,SystemResetWarning,0833.8,5.01,000.00,032.3,026.8,000.0,039.7,031.5,33.5,0000.0,0008.52,0004.83,0004.32
2023-08-03 16:57:00,SystemResetWarning,0833.9,5.01,000.00,032.4,027.2,000.0,039.7,031.6,33.8,0000.0,0008.33,0004.79,0004.30
2023-08-03 16:58:00,SystemResetWarning,0833.9,5.00,000.00,032.4,027.5,000.0,039.8,031.6,33.8,0000.0,0008.70,0004.77,0004.29
2023-08-03 16:59:00,SystemResetWarning,0833.8,5.00,000.00,032.4,027.6,000.0,039.8,031.7,34.6,0000.0,0008.97,0004.78,0004.30
